Cherokee, IA

10:43 PM CST on December 10, 2017 (GMT -0600)
Cherokee Municipal

Weather History for KCKP - October, 2013

Change the Weather History Date:

Sunday, October 6, 2013

  Actual Average Record
Temperature  
Mean Temperature 47 °F -  
Max Temperature 51 °F 65 °F 93 °F (1963)
Min Temperature 43 °F 38 °F 22 °F (1976)
Degree Days  
Heating Degree Days 18    
Moisture  
Dew Point 44 °F    
Average Humidity 88    
Maximum Humidity 92    
Minimum Humidity 70    
Precipitation  
Precipitation 0.02 in - - ()
Sea Level Pressure  
Sea Level Pressure 29.82 in    
Wind  
Wind Speed 5 mph (NW)    
Max Wind Speed 20 mph    
Max Gust Speed 28 mph    
Visibility 8 miles    
Events Rain    
Averages and records for this station are not official NWS values.
T = Trace of Precipitation, MM = Missing Value Source: NWS Daily Summary

Daily Weather History Graph

Daily Weather History Graph

Search for Another Location

Airport or City:

Trip Planner

Search our weather history database for the weather conditions in past years. The results will help you decide how hot, cold, wet, or windy it might be!

Date:

Astronomy

Oct. 06, 2013 Rise Set
Actual Time 7:25 AM CDT 6:54 PM CDT
Civil Twilight 6:57 AM CDT 7:22 PM CDT
Nautical Twilight 6:24 AM CDT 7:55 PM CDT
Astronomical Twilight 5:51 AM CDT 8:28 PM CDT
Moon 9:14 AM CDT (10/6) 7:50 PM CDT (10/6)
Length of Visible Light 12h 25m
Length of Day
11h 29m
Waxing Crescent, 3% of the Moon is Illuminated
Oct 6
Waxing Crescent
Oct 11
First Quarter
Oct 18
Full
Oct 26
Last Quarter
Nov 3
New

Hourly Weather History & Observations

Time (CDT) Temp. Windchill Dew Point Humidity Pressure Visibility Wind Dir Wind Speed Gust Speed Precip Events Conditions
12:15 AM 43.7 °F 39.7 °F 39.6 °F 85% 29.75 in 10.0 mi WSW 6.9 mph - N/A   Drizzle
12:35 AM 43.2 °F - 40.1 °F 89% 29.75 in 10.0 mi Calm Calm - N/A   Drizzle
12:55 AM 43.2 °F - 40.5 °F 90% 29.75 in 10.0 mi Calm Calm - N/A   Light Drizzle
1:15 AM 43.2 °F - 40.8 °F 91% 29.75 in 10.0 mi Calm Calm - N/A   Overcast
1:35 AM 43.2 °F - 40.5 °F 90% 29.76 in 10.0 mi Calm Calm - N/A   Overcast
1:55 AM 43.2 °F - 40.5 °F 90% 29.76 in 10.0 mi Calm Calm - N/A   Overcast
2:15 AM 43.3 °F - 40.6 °F 90% 29.76 in 10.0 mi Calm Calm - N/A   Overcast
2:35 AM 43.7 °F - 41.0 °F 90% 29.76 in 10.0 mi Calm Calm - N/A   Drizzle
2:55 AM 43.7 °F 41.1 °F 41.0 °F 90% 29.76 in 10.0 mi NW 4.6 mph - N/A   Drizzle
3:15 AM 43.9 °F 41.3 °F 41.2 °F 90% 29.76 in 10.0 mi NW 4.6 mph - N/A   Drizzle
3:35 AM 43.9 °F 40.5 °F 41.2 °F 90% 29.76 in 10.0 mi NNW 5.8 mph - N/A Rain Rain
3:55 AM 44.1 °F 41.5 °F 41.2 °F 90% 29.76 in 10.0 mi NNW 4.6 mph - N/A Rain Light Rain
4:15 AM 44.1 °F 42.5 °F 41.0 °F 89% 29.76 in 10.0 mi NNW 3.5 mph - N/A Rain Light Rain
4:35 AM 44.1 °F - 41.0 °F 89% 29.75 in 10.0 mi Calm Calm - N/A   Drizzle
4:55 AM 44.1 °F 42.5 °F 41.0 °F 89% 29.76 in 10.0 mi WNW 3.5 mph - N/A   Overcast
5:15 AM 44.2 °F 42.7 °F 41.4 °F 90% 29.75 in 10.0 mi WNW 3.5 mph - N/A   Overcast
5:35 AM 44.6 °F - 41.9 °F 90% 29.76 in 10.0 mi Calm Calm - N/A Rain Rain
5:55 AM 45.1 °F 42.8 °F 42.6 °F 91% 29.76 in 10.0 mi NW 4.6 mph - N/A   Drizzle
6:15 AM 45.5 °F - 43.0 °F 91% 29.76 in 10.0 mi Calm Calm - N/A   Light Drizzle
6:35 AM 45.7 °F - 43.2 °F 91% 29.76 in 10.0 mi Calm Calm - N/A Rain Rain
6:55 AM 46.0 °F 43.9 °F 43.7 °F 92% 29.77 in 10.0 mi WNW 4.6 mph - N/A   Drizzle
7:15 AM 46.0 °F 41.9 °F 43.7 °F 92% 29.77 in 10.0 mi West 8.1 mph - N/A   Light Drizzle
7:35 AM 46.4 °F 42.9 °F 43.7 °F 90% 29.77 in 10.0 mi WNW 6.9 mph - N/A   Overcast
7:55 AM 46.6 °F - 43.9 °F 90% 29.77 in 10.0 mi WNW 5.8 mph - N/A   Overcast
8:15 AM 47.1 °F - 44.1 °F 89% 29.77 in 4.0 mi WNW 6.9 mph - N/A   Drizzle
8:35 AM 47.1 °F - 44.6 °F 91% 29.77 in 7.0 mi WNW 8.1 mph - N/A   Overcast
8:55 AM 47.3 °F - 45.1 °F 92% 29.77 in 2.0 mi WNW 8.1 mph - N/A   Heavy Drizzle
9:15 AM 47.8 °F - 45.7 °F 92% 29.78 in 5.0 mi WNW 5.8 mph - N/A   Overcast
9:35 AM 48.7 °F - 46.6 °F 92% 29.77 in 7.0 mi NW 8.1 mph - N/A   Overcast
9:55 AM 49.1 °F - 46.8 °F 92% 29.77 in 7.0 mi NW 5.8 mph - N/A   Overcast
10:15 AM 49.6 °F - 47.3 °F 92% 29.77 in 3.0 mi NW 10.4 mph - N/A   Overcast
10:35 AM 50.4 °F - 47.7 °F 90% 29.77 in 5.0 mi NNW 19.6 mph 27.6 mph N/A   Overcast
10:55 AM 50.4 °F - 47.5 °F 90% 29.78 in 2.0 mi NNW 13.8 mph 19.6 mph N/A   Overcast
11:15 AM 50.5 °F - 47.7 °F 90% 29.78 in 3.0 mi NW 13.8 mph 18.4 mph N/A   Overcast
11:35 AM 50.9 °F - 48.0 °F 90% 29.78 in 2.5 mi NW 10.4 mph 19.6 mph N/A   Overcast
11:55 AM 50.5 °F - 47.8 °F 90% 29.79 in 1.8 mi NW 12.7 mph 23.0 mph N/A   Overcast
12:15 PM 50.9 °F - 48.2 °F 90% 29.79 in 2.0 mi NW 13.8 mph 23.0 mph N/A   Overcast
1:35 PM 50.2 °F - 46.6 °F 87% 29.81 in - NW 10.4 mph - N/A   Unknown
1:55 PM 50.4 °F - 47.1 °F 89% 29.80 in 10.0 mi NNW 11.5 mph 21.9 mph N/A Rain Light Rain
2:15 PM 50.2 °F - 46.9 °F 89% 29.80 in 7.0 mi NW 11.5 mph 20.7 mph 0.01 in Rain Light Rain
2:35 PM 50.0 °F - 47.1 °F 90% 29.81 in 7.0 mi NW 10.4 mph 19.6 mph 0.01 in Rain Light Rain
2:55 PM 50.2 °F - 46.9 °F 89% 29.81 in 10.0 mi NNW 15.0 mph 23.0 mph 0.01 in Rain Light Rain
3:15 PM 50.4 °F - 47.3 °F 89% 29.82 in 7.0 mi NNW 12.7 mph 19.6 mph 0.01 in Rain Light Rain
3:35 PM 50.4 °F - 47.3 °F 89% 29.82 in 7.0 mi NNW 13.8 mph 23.0 mph 0.01 in Rain Light Rain
3:55 PM 50.0 °F - 46.8 °F 89% 29.83 in 7.0 mi NNW 18.4 mph 23.0 mph 0.01 in Rain Light Rain
4:15 PM 50.0 °F - 47.1 °F 90% 29.84 in 10.0 mi NNW 15.0 mph - N/A Rain Light Rain
4:35 PM 50.2 °F - 47.1 °F 89% 29.84 in 10.0 mi NNW 13.8 mph 21.9 mph N/A Rain Rain
4:55 PM 50.2 °F - 47.3 °F 90% 29.85 in 10.0 mi NNW 17.3 mph 21.9 mph N/A Rain Light Rain
5:15 PM 50.4 °F - 47.3 °F 89% 29.85 in 10.0 mi NNW 16.1 mph 24.2 mph N/A   Light Drizzle
5:35 PM 50.4 °F - 47.3 °F 89% 29.87 in 10.0 mi NNW 16.1 mph 23.0 mph N/A   Light Drizzle
5:55 PM 50.2 °F - 47.5 °F 90% 29.87 in 4.0 mi NNW 11.5 mph 18.4 mph N/A   Drizzle
6:15 PM 50.4 °F - 47.7 °F 90% 29.88 in 10.0 mi North 8.1 mph - N/A   Overcast
6:35 PM 50.9 °F - 47.8 °F 89% 29.88 in 10.0 mi NNW 8.1 mph - N/A   Overcast
6:55 PM 51.1 °F - 48.2 °F 90% 29.89 in 10.0 mi NNW 8.1 mph - N/A   Overcast
7:15 PM 51.1 °F - 48.2 °F 90% 29.90 in 10.0 mi NNW 4.6 mph - N/A   Overcast
7:35 PM 51.3 °F - 48.2 °F 89% 29.91 in 10.0 mi NW 3.5 mph - N/A   Overcast
7:55 PM 51.1 °F - 48.2 °F 90% 29.92 in 10.0 mi NW 3.5 mph - N/A   Overcast
8:15 PM 50.5 °F - 47.5 °F 89% 29.92 in 10.0 mi Calm Calm - N/A   Overcast
8:35 PM 49.5 °F - 46.4 °F 89% 29.92 in 10.0 mi Calm Calm - N/A   Scattered Clouds
8:55 PM 47.7 °F - 44.4 °F 89% 29.93 in 10.0 mi Calm Calm - N/A   Clear
9:15 PM 46.6 °F - 44.4 °F 92% 29.93 in 10.0 mi Calm Calm - N/A   Clear
9:35 PM 48.0 °F - 42.3 °F 80% 29.94 in 10.0 mi Calm Calm - N/A   Clear
9:55 PM 46.9 °F - 41.0 °F 80% 29.95 in 10.0 mi NW 3.5 mph - N/A   Clear
10:15 PM 48.4 °F - 39.6 °F 72% 29.96 in 10.0 mi WNW 3.5 mph - N/A   Clear
10:35 PM 47.8 °F - 39.2 °F 72% 29.96 in 10.0 mi Calm Calm - N/A   Clear
10:55 PM 48.2 °F - 38.7 °F 70% 29.96 in 10.0 mi WNW 4.6 mph - N/A   Clear
11:15 PM 48.0 °F - 38.7 °F 70% 29.97 in 10.0 mi WNW 4.6 mph - N/A   Clear
11:35 PM 47.8 °F - 38.7 °F 70% 29.97 in 10.0 mi NNW 5.8 mph - N/A   Clear
11:55 PM 46.8 °F - 39.0 °F 74% 29.97 in 10.0 mi NNW 4.6 mph - N/A   Clear